Regional Weather Roundup
Issued by NWS

Home | Current Version | Previous Version | Graphics & Text | Print | Product List | Glossary On
Versions: 1 2 3 4 5 6 7 8 9 10 11 12 13 14 15 16 17 18 19 20 21 22 23 24 25 26 27 28 29 30 31 32 33 34 35 36 37 38 39 40 41 42 43 44 45 46 47 48 49 50
688
ASUS43 KIND 190209
RWRIN

WEATHER ROUNDUP FOR INDIANA
NATIONAL WEATHER SERVICE INDIANAPOLIS IN
1000 PM EDT FRI AUG 18 2017

NOTE: "FAIR" INDICATES FEW OR NO CLOUDS BELOW 12,000 FEET WITH NO
SIGNIFICANT WEATHER AND/OR OBSTRUCTIONS TO VISIBILITY.

* - STATION DOES NOT REPORT WEATHER SUCH AS PRECIPITATION OR FOG.

+ - STATION NOT QUALITY CONTROLLED BY THE NATIONAL WEATHER SERVICE.
    USE DATA WITH CAUTION...ESPECIALLY DEWPOINT AND RELATIVE
    HUMIDITY OBSERVATIONS.

INZ001>003-010>013-019-020-190300-
NORTHWEST INDIANA

CITY           SKY/WX    TMP DP  RH WIND       PRES   REMARKS
GARY /AIRPORT/ PTCLDY    77  59  53 W7        29.88R
KNOX *+        CLEAR     64  61  88 SW5       29.88R
LA PORTE +     CLEAR     67  63  86 CALM      29.89R
MICHIGAN CITY+ CLEAR     64  64 100 CALM      29.88R
MONTICELLO +   CLEAR     68  65  88 CALM      29.89R
RENSSELAER +   CLEAR     66  61  82 SW3       29.90R
VALPARAISO     CLEAR     74  63  68 W8        29.89R

$$

LMZ046-743>745-190300-
SOUTHERN LAKE MICHIGAN

STATION/POSITION TIME  TEMP    WIND        PRES    WAVE
                       AIR SEA DIR/SP/G            HT
                 (UTC) (F)     (DEG/KT/KT) (MB)    (FT)
BURNS HARBOR     0200   74      70/  3/  7 1012.2
MICHIGAN CITY    0140   72     100/  3/  4   N/A
5NW MICH CITY    0200   73 74  120/  4/  4   N/A     2

$$

INZ004-005-014>016-021>024-190300-
NORTH CENTRAL INDIANA

CITY           SKY/WX    TMP DP  RH WIND       PRES   REMARKS
GOSHEN         PTCLDY    67  62  84 NW3       29.88R
LOGANSPORT +   CLEAR     68  63  83 W3        29.90R
PERU/GRISSOM   PTCLDY    68  65  90 SW6       29.89R
ROCHESTER +    CLEAR     72  64  78 W5        29.89S
SOUTH BEND     CLEAR     69  63  81 CALM      29.88R
WARSAW +       CLEAR     68  64  88 CALM      29.89R

$$

INZ006>009-017-018-025>027-190300-
NORTHEAST INDIANA

CITY           SKY/WX    TMP DP  RH WIND       PRES   REMARKS
AUBURN +       CLEAR     68  63  83 CALM      29.89R
FORT WAYNE     PTCLDY    68  62  81 W5        29.89R
HUNTINGTON +   CLEAR     69  65  86 CALM      29.89R
KENDALLVILLE + CLEAR     66  64  93 CALM      29.89S

$$

INZ028-029-035-036-043>045-051>053-190300-
WEST CENTRAL INDIANA

CITY           SKY/WX    TMP DP  RH WIND       PRES   REMARKS
GREENCASTLE +  CLEAR     68  63  83 CALM      29.92R
LAFAYETTE      CLEAR     70  65  84 SW5       29.89R
TERRE HAUTE    CLOUDY    68  63  84 CALM      29.91R

$$

INZ030>032-037>040-046>048-054>057-064-065-190300-
CENTRAL INDIANA

CITY           SKY/WX    TMP DP  RH WIND       PRES   REMARKS
CP ATTERBURY + CLEAR     66  63  88 CALM      29.93R
COLUMBUS       PTCLDY    73  63  68 S6        29.92S
FRANKFORT +    MOCLDY    69  66  90 CALM      29.93R
GREENWOOD *+   CLEAR     69  62  79 W3        29.92R
INDIANAPOLIS   PTCLDY    73  62  68 SW7       29.90R
-EAGLE CREEK   CLEAR     74  62  66 CALM      29.90S
KOKOMO +       PTCLDY    70  64  81 SW5       29.91R
MARION +       CLEAR     66  63  88 SW5       29.91R
MT COMFORT *+  CLEAR     70  63  78 SW6       29.92R
SHELBYVILLE    CLEAR     70  62  76 SW5       29.91R
ZIONSVILLE +   CLEAR     69  63  81 SW3       29.92R

$$

INZ033-034-041-042-049-050-058-059-190300-
EAST CENTRAL INDIANA

CITY           SKY/WX    TMP DP  RH WIND       PRES   REMARKS
MUNCIE         CLEAR     73  62  68 SW3       29.91R
RICHMOND +     CLEAR     63  63 100 SW5       29.93S

$$

INZ060-061-067>069-081>083-085>088-190300-
SOUTHWEST INDIANA

CITY           SKY/WX    TMP DP  RH WIND       PRES   REMARKS
EVANSVILLE     CLEAR     77  65  66 CALM      29.95R
HUNTINGBURG +  CLEAR     73  67  81 SW7       29.95R
WASHINGTON +   CLEAR     70  63  76 MISG      29.92R

$$

INZ062-063-066-070>080-084-089>092-190300-
SOUTH CENTRAL AND SOUTHEAST INDIANA

CITY           SKY/WX    TMP DP  RH WIND       PRES   REMARKS
BEDFORD +      CLEAR     72  63  73 S3        29.93R
BLOOMINGTON    CLEAR     69  61  75 CALM      29.93R
MADISON *+     CLEAR     70  64  83 CALM      29.96R
NORTH VERNON + CLEAR     68  64  88 S5        29.94R
SEYMOUR +      CLEAR     72  64  78 S6        29.93R

$$





USA.gov is the U.S. government's official web portal to all federal, state and local government web resources and services.